CAPE
0 0 0 0 0 0 0 21 33 41 119 168 348 369 443 161 73 2 0 0 0 0 0 0 6 7 7 0 0 0 11 24 121 159 430 433 397 224 123 312 270 228 321 566
0 0 0 0 0 0 0 0 5 60 236 48 140 191 99 390 330 53 4 0 0 5 12 0 0 0 6 0 0 0 55 85 266 293 337 410 224 117 31 74 647 702 506 560
0 0 0 0 0 10 0 5 8 39 108 29 60 51 281 517 413 133 44 4 3 0 5 0 0 0 7 0 0 0 103 60 275 330 322 83 41 800 718 797 456 656 756 834
0 0 0 0 0 0 0 0 8 33 39 68 24 21 615 430 519 152 74 49 25 10 0 0 0 0 3 2 1 20 104 62 278 372 454 342 235 363 539 542 248 134 888 1038
0 0 0 0 0 0 0 0 20 33 58 0 0 39 319 99 533 480 157 73 55 44 30 0 0 0 6 36 25 44 119 134 328 457 480 339 142 183 294 422 355 365 804 912
0 0 0 0 0 0 0 0 0 0 0 0 0 0 0 244 543 594 377 222 99 69 61 13 18 7 81 41 79 119 253 320 396 420 443 332 205 247 513 462 291 229 419 664
0 0 0 0 0 0 0 0 0 0 0 0 0 0 0 0 1 520 439 338 170 74 42 9 2 37 217 193 198 292 407 419 483 568 535 385 160 298 522 498 392 122 232 713
0 0 0 0 0 0 0 0 0 0 0 0 0 0 0 0 0 52 446 360 22 215 27 3 15 83 347 465 431 504 439 465 620 754 730 566 150 395 482 555 455 181 69 433
0 0 0 0 0 0 0 0 0 0 0 0 0 0 0 0 57 93 64 155 146 68 14 22 129 188 449 640 587 728 483 474 763 938 866 752 477 393 637 650 433 237 23 249
0 0 0 0 0 0 0 0 0 0 0 0 0 0 0 0 0 0 48 199 51 33 109 83 273 246 479 692 668 900 883 610 738 1138 1231 1024 783 771 780 629 479 303 184 456
0 0 0 0 0 0 0 0 0 0 0 0 0 0 0 0 0 0 0 27 0 19 153 177 365 270 421 680 755 789 1243 1071 1019 1071 1358 1609 1212 993 919 848 606 444 404 547
0 0 0 0 0 0 0 0 0 0 0 0 0 0 0 0 0 9 9 52 652 769 0 187 371 374 369 753 810 843 782 1285 1340 1309 1242 1351 1795 1373 1168 977 808 721 685 616
0 0 0 0 0 0 0 0 0 0 0 0 0 0 0 55 485 164 226 826 1033 1785 927 59 490 466 423 595 685 1059 966 1003 1215 1451 1484 1388 1645 1878 1542 1220 824 871 836 734
0 0 0 0 0 0 0 0 0 0 0 0 0 0 0 469 692 628 706 236 92 670 1599 1983 1686 1071 958 761 902 895 1234 1328 1135 1574 1764 1625 1539 1957 1984 1592 1123 957 885 595
0 0 0 0 0 0 0 0 0 0 0 0 0 0 420 774 597 264 22 28 36 95 122 495 1763 2355 2139 1451 1214 1207 1097 1626 1620 1603 2042 2032 1886 1680 2017 1697 1348 1047 819 596
0 0 0 0 0 0 0 0 0 0 0 0 0 0 376 672 499 48 54 39 34 0 0 0 3 1140 2336 2591 2778 1471 1396 1587 1830 2000 1999 2176 2126 1962 2051 1535 1343 1055 769 405
0 0 0 0 0 0 0 0 0 0 0 0 2 154 666 687 554 180 47 35 13 32 20 3 33 0 25 1343 2336 2424 1766 1838 2109 2246 2199 2227 1068 1930 2168 1486 1104 862 584 195
0 0 0 0 0 0 0 0 0 0 472 187 194 484 682 273 228 156 132 57 34 44 29 14 102 211 134 275 1891 1916 1868 1795 2216 2392 2421 2401 2383 2279 1970 1482 1053 786 437 201
0 0 0 0 0 0 0 0 0 2 222 21 169 213 546 88 165 597 259 82 19 0 0 350 1155 1695 1816 1728 1626 1476 1729 1872 2313 2570 2507 2420 2340 2298 1785 1492 1086 678 336 106
0 0 0 0 0 0 0 0 0 0 378 0 172 138 114 99 736 858 393 523 224 42 676 1925 1909 1918 1594 1407 1303 1503 2052 1901 2344 2712 2604 2316 2158 2085 1677 1423 1053 652 284 83
0 0 0 0 0 0 0 0 0 0 0 0 121 124 59 259 310 526 621 1104 1044 1378 2221 2000 1706 1562 1526 1327 1105 1806 1831 2047 2275 2641 2457 2012 1956 1854 1580 1265 953 348 121 22
0 0 0 0 0 0 0 0 0 0 0 0 0 9 13 0 99 225 359 0 152 344 2218 2089 1658 1329 1099 1213 1075 1356 1981 1815 1938 2111 1950 1800 1519 1217 771 626 158 86 27 1
0 0 0 0 0 0 0 0 0 0 0 0 0 0 0 0 0 0 0 0 0 0 735 1565 1586 1346 1264 992 1107 1081 1389 1598 1684 1482 1205 1278 1075 845 684 269 1 2 3 2
0 0 0 0 0 0 0 0 0 0 0 0 0 0 0 0 0 0 0 0 0 0 0 23 942 956 1019 1105 1038 1044 963 1244 1504 1375 1089 861 842 445 161 2 2 2 0 0
0 0 0 0 0 0 0 0 0 0 0 0 0 0 0 0 0 0 0 0 0 0 0 0 0 150 749 932 1119 962 954 1012 1417 1404 1171 903 506 169 26 8 0 1 2 0
0 0 0 0 0 0 0 0 0 0 0 0 0 0 0 0 0 0 0 0 0 0 0 0 0 0 0 40 614 1142 798 832 1073 1334 1220 874 511 173 11 1 1 0 0 0
CIN
-0 -0 -0 -0 -0 -0 -1 -216 -175 -120 -120 -176 -273 -211 -329 -482 -443 -501 -0 -0 -0 -0 -0 -0 -392 -351 -257 -0 -0 -0 -261 -291 -256 -226 -186 -162 -151 -171 -189 -183 -172 -176 -153 -114
-0 -0 -0 -0 -0 -0 -0 -0 -195 -128 -95 -163 -267 -253 -324 -346 -393 -415 -522 -0 -0 -501 -521 -0 -0 -0 -314 -0 -0 -0 -271 -323 -234 -188 -192 -151 -188 -192 -230 -264 -136 -139 -135 -122
-0 -0 -0 -0 -0 -242 -17 -292 -188 -104 -104 -171 -166 -165 -185 -342 -386 -412 -492 -288 -510 -0 -506 -0 -0 -0 -495 -0 -0 -0 -293 -371 -234 -204 -234 -276 -234 -112 -113 -113 -138 -147 -125 -84
-0 -0 -0 -0 -0 -0 -0 -0 -251 -184 -192 -64 -287 -152 -161 -324 -319 -451 -441 -504 -530 -491 -92 -0 -0 -0 -208 -264 -74 -452 -309 -360 -273 -269 -195 -169 -172 -140 -155 -166 -187 -220 -93 -67
-0 -0 -0 -0 -0 -0 -0 -0 -244 -213 -206 -60 -0 -167 -145 -535 -301 -391 -454 -488 -496 -457 -440 -0 -13 -0 -582 -587 -555 -460 -390 -359 -284 -267 -217 -203 -261 -233 -212 -199 -179 -170 -105 -61
-0 -0 -0 -0 -0 -0 -0 -0 -0 -0 -0 -0 -0 -0 -0 -285 -281 -294 -375 -416 -469 -474 -481 -510 -518 -562 -437 -513 -542 -482 -407 -351 -328 -295 -263 -245 -249 -252 -188 -198 -195 -193 -154 -101
-0 -0 -0 -0 -0 -0 -0 -0 -0 -0 -0 -0 -0 -0 -0 -0 -128 -323 -256 -373 -486 -448 -502 -600 -183 -600 -456 -469 -487 -511 -431 -383 -357 -293 -294 -290 -343 -283 -193 -200 -209 -297 -215 -101
-0 -0 -0 -0 -0 -0 -0 -0 -0 -0 -0 -0 -0 -0 -0 -0 -0 -407 -335 -333 -634 -514 -549 -239 -541 -592 -498 -455 -484 -420 -481 -432 -374 -302 -302 -323 -421 -299 -271 -226 -227 -286 -358 -173
-0 -0 -0 -0 -0 -0 -0 -0 -0 -0 -0 -0 -0 -0 -0 -0 -288 -454 -486 -424 -451 -590 -658 -628 -530 -561 -506 -506 -540 -449 -503 -458 -415 -339 -320 -323 -359 -342 -295 -257 -286 -319 -407 -264
-0 -0 -0 -0 -0 -0 -0 -0 -0 -0 -0 -0 -0 -0 -0 -0 -0 -0 -383 -247 -463 -585 -561 -626 -536 -566 -567 -467 -564 -488 -476 -478 -446 -365 -303 -309 -345 -324 -315 -328 -317 -328 -353 -223
-0 -0 -0 -0 -0 -0 -0 -0 -0 -0 -0 -0 -0 -0 -0 -0 -0 -0 -7 -276 -0 -368 -546 -573 -514 -573 -584 -527 -496 -525 -469 -443 -436 -399 -317 -245 -302 -344 -354 -311 -339 -345 -318 -240
-0 -0 -0 -0 -0 -0 -0 -0 -0 -0 -0 -0 -0 -0 -0 -0 -0 -488 -454 -526 -534 -531 -0 -472 -498 -553 -637 -588 -544 -494 -576 -450 -451 -415 -378 -341 -253 -297 -332 -334 -338 -362 -299 -301
-0 -0 -0 -0 -0 -0 -0 -0 -0 -0 -0 -0 -0 -0 -0 -657 -635 -623 -487 -656 -708 -512 -620 -142 -473 -495 -519 -476 -436 -409 -552 -519 -436 -414 -369 -367 -328 -271 -301 -338 -404 -393 -345 -326
-0 -0 -0 -0 -0 -0 -0 -0 -0 -0 -0 -0 -0 -0 -0 -570 -620 -650 -604 -891 -919 -797 -600 -558 -639 -649 -508 -519 -470 -487 -382 -355 -434 -422 -383 -372 -389 -314 -280 -319 -402 -431 -407 -443
-0 -0 -0 -0 -0 -0 -0 -0 -0 -0 -0 -0 -0 -0 -237 -539 -635 -770 -889 -912 -938 -897 -895 -797 -549 -465 -518 -630 -575 -488 -502 -437 -354 -277 -372 -396 -394 -380 -272 -340 -412 -450 -476 -498
-0 -0 -0 -0 -0 -0 -0 -0 -0 -0 -0 -0 -0 -3 -493 -562 -619 -810 -763 -832 -724 -836 -0 -0 -641 -611 -446 -383 -393 -497 -411 -416 -383 -358 -363 -356 -360 -365 -316 -401 -412 -454 -483 -572
-0 -0 -0 -0 -0 -0 -0 -0 -0 -0 -0 -0 -18 -181 -389 -428 -482 -625 -736 -736 -724 -729 -785 -516 -963 -0 -731 -540 -329 -344 -497 -421 -400 -354 -327 -317 -180 -308 -329 -433 -464 -485 -519 -628
-0 -0 -0 -0 -0 -0 -0 -0 -0 -0 -135 -203 -206 -223 -311 -392 -497 -688 -804 -868 -805 -890 -875 -886 -834 -824 -885 -910 -529 -548 -551 -489 -349 -355 -368 -302 -290 -312 -367 -418 -469 -473 -551 -619
-0 -0 -0 -0 -0 -0 -0 -0 -0 -8 -108 -103 -198 -242 -275 -408 -428 -310 -626 -817 -876 -0 -21 -741 -570 -506 -498 -532 -560 -612 -543 -477 -358 -290 -305 -356 -311 -294 -385 -411 -432 -464 -547 -636
-0 -0 -0 -0 -0 -0 -0 -0 -0 -0 -65 -0 -218 -233 -270 -352 -141 -180 -379 -467 -526 -680 -502 -269 -288 -307 -377 -429 -525 -495 -389 -385 -290 -266 -291 -324 -312 -280 -347 -403 -409 -473 -559 -698
-0 -0 -0 -0 -0 -0 -0 -0 -0 -0 -0 -0 -149 -201 -278 -176 -199 -229 -307 -255 -282 -241 -153 -190 -263 -305 -322 -392 -478 -324 -341 -291 -225 -158 -216 -248 -267 -276 -266 -284 -361 -491 -599 -713
-0 -0 -0 -0 -0 -0 -0 -0 -0 -0 -0 -0 -0 -92 -221 -0 -263 -324 -325 -53 -106 -295 -137 -174 -250 -325 -396 -375 -414 -356 -281 -346 -310 -246 -284 -269 -262 -275 -258 -215 -247 -600 -677 -195
-0 -0 -0 -0 -0 -0 -0 -0 -0 -0 -0 -0 -0 -0 -0 -0 -0 -0 -0 -0 -0 -0 -268 -228 -240 -279 -296 -375 -362 -312 -308 -277 -263 -291 -294 -302 -261 -262 -275 -293 -39 -49 -0 -0
-0 -0 -0 -0 -0 -0 -0 -0 -0 -0 -0 -0 -0 -0 -0 -0 -0 -0 -0 -0 -0 -0 -0 -166 -250 -246 -241 -242 -294 -302 -370 -287 -216 -208 -231 -305 -307 -400 -473 -117 -0 -0 -0 -0
-0 -0 -0 -0 -0 -0 -0 -0 -0 -0 -0 -0 -0 -0 -0 -0 -0 -0 -0 -0 -0 -0 -0 -0 -0 -542 -275 -248 -216 -253 -288 -285 -155 -153 -189 -209 -305 -465 -541 -622 -0 -0 -95 -59
-0 -0 -0 -0 -0 -0 -0 -0 -0 -0 -0 -0 -0 -0 -0 -0 -0 -0 -0 -0 -0 -0 -0 -0 -0 -0 -0 -177 -287 -210 -245 -233 -177 -90 -122 -194 -276 -416 -614 -0 -0 -0 -0 -0
Wind_Speed
3 5 4 9 7 7 5 4 7 8 7 5 10 7 13 15 14 17 17 16 17 19 21 19 17 17 15 11 10 12 11 8 8 4 4 3 4 3 2 3 3 2 4 4
7 4 8 5 6 7 4 7 8 9 4 2 9 16 13 14 20 24 21 19 20 18 16 16 17 17 17 15 13 13 13 11 10 7 4 3 3 2 2 3 3 5 4 5
6 9 1 4 3 4 4 8 7 7 5 3 3 8 1 1 7 18 21 24 21 22 19 14 15 18 16 14 16 15 15 14 12 7 5 3 3 3 2 3 4 3 4 6
6 5 2 1 5 7 6 11 16 10 3 5 4 7 7 3 5 14 18 21 20 20 17 14 14 16 19 17 15 14 14 14 12 9 8 6 5 4 4 4 3 2 5 6
9 3 3 3 7 7 12 2 10 11 4 5 4 2 9 1 9 12 17 19 20 20 19 17 17 19 18 16 16 14 13 13 12 12 11 8 5 4 2 3 5 5 4 5
6 2 4 7 5 8 2 3 8 6 5 2 6 5 8 6 13 11 8 15 17 18 18 16 15 12 13 13 14 14 14 14 12 14 11 12 9 6 4 4 4 3 3 3
6 5 5 2 4 2 7 8 4 4 4 6 1 3 13 5 7 15 20 15 12 17 16 12 15 14 14 15 15 15 15 14 13 14 13 12 10 9 9 7 5 5 3 3
3 8 6 7 2 4 4 9 8 4 3 6 0 3 8 6 9 11 2 9 10 9 12 15 18 17 17 17 16 14 16 14 13 14 13 11 9 8 6 7 5 5 6 6
3 5 6 1 3 1 2 1 3 9 3 2 4 8 10 12 10 5 8 7 8 10 10 16 16 16 17 18 19 18 16 14 15 16 12 11 9 9 9 9 6 6 5 5
1 4 1 7 7 8 7 3 3 5 2 3 5 2 6 13 19 7 2 7 6 8 11 13 16 17 16 16 15 15 16 18 17 16 13 12 12 11 8 8 8 7 6 6
3 4 9 2 3 3 7 7 6 6 4 5 0 5 9 9 15 12 3 7 6 9 11 15 16 16 15 14 14 15 15 16 14 14 13 12 12 11 9 9 9 9 7 8
2 6 2 8 1 5 3 2 4 6 4 2 5 8 8 13 8 10 9 9 9 7 3 6 12 18 16 16 15 18 14 14 16 16 15 15 14 12 11 11 10 9 10 9
0 3 4 12 8 5 6 5 3 4 4 1 5 7 5 13 15 10 10 12 10 10 11 5 9 6 5 3 2 6 14 16 15 14 14 13 14 14 14 13 11 11 10 9
8 4 7 7 8 3 5 5 3 4 4 3 5 6 8 11 9 10 10 10 8 10 11 10 10 7 8 8 8 8 9 11 11 14 14 14 15 15 15 13 13 12 12 12
5 2 5 6 7 3 4 5 5 1 4 4 7 7 5 2 5 5 5 4 6 9 10 8 7 6 4 8 8 10 12 13 13 12 14 17 15 13 12 12 14 13 13 12
3 3 1 5 4 1 4 7 5 3 4 6 5 4 3 1 1 0 2 1 4 4 2 3 3 3 4 5 7 5 10 11 12 15 18 15 15 14 14 12 12 12 12 12
2 4 3 6 5 6 6 6 4 2 1 2 4 6 4 2 5 5 4 3 1 5 7 7 6 3 1 3 7 5 6 11 17 17 16 16 13 15 16 13 13 13 14 13
7 6 2 4 4 1 10 5 4 3 2 4 4 1 3 3 3 4 5 5 5 6 7 6 5 7 8 4 5 5 5 11 16 18 19 16 14 16 15 15 16 15 14 16
6 7 2 3 3 6 7 4 3 4 1 1 5 5 5 4 4 3 4 3 6 7 8 7 6 5 5 6 7 9 9 11 16 18 18 18 18 18 18 19 18 16 14 13
8 6 6 3 4 6 6 8 3 4 1 3 2 5 7 4 2 6 3 4 5 6 5 5 7 6 7 9 9 11 13 8 15 17 18 15 16 18 19 19 19 16 14 15
4 4 5 2 4 7 6 10 4 3 7 5 5 6 6 6 7 5 4 4 4 4 5 4 4 3 6 8 8 8 9 6 5 7 6 8 13 14 13 12 11 13 14 12
3 1 3 1 3 5 5 5 4 6 3 2 4 4 7 7 6 5 7 6 5 5 6 4 2 4 4 5 6 7 11 11 7 4 7 7 8 5 3 4 5 10 10 11
3 7 4 7 7 6 4 2 2 3 1 3 2 3 5 2 4 5 5 6 5 4 4 4 5 5 6 4 4 6 6 6 7 6 2 6 6 9 9 13 10 7 7 5
4 2 3 4 4 4 3 2 2 3 2 3 4 6 2 3 3 4 5 5 5 5 5 3 5 6 7 6 5 6 5 4 4 4 2 4 4 7 9 9 10 9 10 8
6 3 3 6 10 7 5 4 3 4 5 5 5 3 5 6 7 5 5 5 5 5 4 4 6 6 8 7 7 7 6 3 4 4 3 4 6 6 8 9 9 8 10 10
6 7 5 10 9 5 8 6 6 8 8 9 9 8 8 6 8 5 3 3 4 6 6 7 7 7 9 7 9 8 6 4 3 4 3 3 2 4 5 5 4 10 4 6
Wind_Direction
20 82 214 220 197 219 199 210 229 268 171 137 193 222 228 202 206 187 194 204 199 210 216 209 210 205 198 190 173 183 171 163 153 146 138 159 184 162 196 195 211 219 192 192
17 232 231 220 221 234 209 225 235 276 131 253 186 227 232 191 208 203 188 197 207 216 215 212 210 211 199 189 181 181 182 169 175 175 165 153 144 153 191 168 196 212 188 184
167 247 58 182 211 176 238 207 224 212 333 304 120 311 208 2 192 209 197 199 200 208 212 205 196 198 196 184 183 182 182 174 181 167 126 87 88 101 138 191 222 169 172 189
227 277 227 316 264 168 246 209 243 242 109 250 90 268 290 176 222 207 196 202 201 204 213 205 192 190 187 189 185 180 180 177 179 160 168 170 176 161 200 184 185 190 185 201
255 266 297 244 231 154 231 164 208 232 206 62 293 95 272 271 223 222 208 204 201 201 202 200 197 190 191 175 178 179 176 175 177 176 180 185 174 174 164 155 166 181 186 200
248 239 194 224 251 198 281 119 32 44 85 77 233 151 281 204 224 227 201 213 197 196 203 199 195 186 182 183 172 169 173 182 177 181 182 186 187 176 154 164 169 178 188 182
342 300 285 230 352 354 75 57 344 350 13 216 30 64 239 292 243 218 212 201 177 193 195 183 182 177 176 179 182 172 175 181 182 184 185 190 192 180 183 178 172 161 167 193
104 346 5 326 280 256 224 153 151 210 210 252 52 248 262 279 280 230 328 151 164 179 192 187 185 179 179 177 176 183 179 180 183 186 194 192 183 192 188 181 171 183 187 193
111 291 312 187 279 37 348 278 170 101 7 45 287 310 321 347 332 110 118 130 184 184 183 190 186 181 182 179 178 182 181 187 185 192 188 191 185 188 188 184 177 185 182 182
269 357 262 294 23 6 83 197 25 13 132 277 316 281 256 321 315 314 143 190 200 198 188 180 185 186 182 187 175 181 181 185 191 190 191 194 191 194 189 170 179 180 183 175
106 81 300 22 79 317 350 10 45 111 106 150 318 279 227 274 281 280 239 287 248 188 186 185 183 188 183 176 179 183 181 187 190 193 194 192 197 193 182 186 186 189 174 178
316 132 281 250 352 326 5 70 115 106 288 79 137 275 293 327 352 61 36 30 32 20 355 208 192 177 174 177 180 189 181 190 195 195 192 198 196 193 190 191 192 179 188 180
123 46 6 344 2 360 35 342 82 102 78 236 110 267 348 2 25 17 55 26 10 42 44 78 121 124 80 16 290 229 190 198 197 192 197 199 199 194 198 194 190 182 181 177
79 102 147 178 224 229 312 320 66 97 83 221 225 279 312 5 9 17 42 360 349 34 65 64 60 83 123 145 158 199 204 235 215 194 193 199 202 203 199 192 188 181 178 170
78 169 194 228 231 219 255 275 334 6 202 172 252 210 275 359 313 350 8 352 31 47 46 49 64 73 82 130 161 193 198 197 203 210 202 205 200 198 202 194 188 180 177 176
21 267 264 272 261 2 254 284 294 248 231 243 207 243 233 137 232 226 142 111 60 36 54 80 104 44 67 71 28 264 212 206 200 204 216 207 193 187 195 188 190 180 176 170
160 148 89 274 345 335 334 249 191 252 280 226 177 234 173 205 205 200 187 193 229 306 320 340 347 124 146 220 204 240 278 214 196 206 214 214 189 181 191 179 176 178 177 169
152 119 122 254 5 288 241 258 229 151 99 63 45 49 167 269 272 282 261 253 238 201 205 240 288 326 320 301 303 277 264 251 219 214 200 202 195 194 187 180 183 177 176 180
180 129 151 157 198 280 313 352 39 201 196 323 173 215 214 204 319 320 237 241 276 304 325 332 343 356 338 330 322 313 295 257 220 214 211 198 195 195 188 188 182 179 174 179
72 72 123 135 183 232 239 291 320 140 329 272 173 216 193 137 131 260 223 217 259 263 280 348 346 342 336 324 328 327 312 250 223 212 212 208 205 200 196 190 183 180 183 182
359 27 176 193 232 285 262 290 316 190 235 188 195 213 172 194 203 211 209 234 218 215 204 212 236 281 303 313 324 326 320 307 272 235 211 209 208 204 198 190 174 184 184 174
181 133 234 128 194 274 329 4 93 221 302 309 320 285 237 228 218 199 207 198 174 223 224 225 262 263 257 292 324 343 347 330 326 186 156 188 193 172 151 137 235 200 182 179
261 183 203 172 218 233 294 96 329 193 126 347 281 302 348 246 236 230 245 242 240 249 267 264 259 296 311 315 334 342 321 327 330 349 323 221 173 189 152 145 211 164 148 137
267 164 205 43 286 206 360 244 330 26 354 302 319 298 244 189 232 250 260 271 275 277 272 276 275 292 298 304 301 285 309 329 325 294 230 237 196 153 151 162 192 177 164 178
206 151 174 262 283 284 247 213 249 290 282 285 286 244 277 280 269 236 219 244 274 281 270 290 309 301 282 294 288 288 294 325 288 267 253 201 221 198 168 182 171 191 203 193
188 225 200 251 225 194 241 235 250 241 246 250 254 273 254 230 235 264 280 306 320 331 336 339 320 306 293 287 281 269 248 237 254 264 254 252 202 160 172 172 118 33 305 116